Time,TemperatureF,DewpointF,PressureIn,WindDirection,WindDirectionDegrees,WindSpeedMPH,WindSpeedGustMPH,Humidity,HourlyPrecipIn,Conditions,Clouds,dailyrainin,SoftwareType,DateUTC
2013-02-21 00:00:00,46.2,32.0,29.94,West,263,3.1,3.1,48,0.00,,,-99.99,wx200d/1.3,2013-02-21 08:00:00,
2013-02-21 00:15:00,46.0,32.0,29.94,West,262,2.2,2.7,44,0.00,,,-99.99,wx200d/1.3,2013-02-21 08:15:00,
2013-02-21 00:30:00,46.2,32.0,29.91,West,278,3.1,0.0,42,0.00,,,-99.99,wx200d/1.3,2013-02-21 08:30:00,
2013-02-21 00:45:00,46.0,32.0,29.94,West,276,2.7,2.7,42,0.00,,,-99.99,wx200d/1.3,2013-02-21 08:45:00,
2013-02-21 01:00:00,46.0,32.0,29.94,West,272,2.7,3.1,41,0.00,,,-99.99,wx200d/1.3,2013-02-21 09:00:00,
2013-02-21 01:15:00,45.7,32.0,29.94,WNW,290,2.7,0.0,39,0.00,,,-99.99,wx200d/1.3,2013-02-21 09:15:00,
2013-02-21 01:30:00,45.9,32.0,29.94,WNW,291,2.2,3.6,38,0.00,,,-99.99,wx200d/1.3,2013-02-21 09:30:00,
2013-02-21 01:45:00,46.2,32.0,29.94,West,265,3.1,3.1,39,0.00,,,-99.99,wx200d/1.3,2013-02-21 09:45:00,
2013-02-21 02:00:00,46.0,32.0,29.94,West,272,2.2,2.2,39,0.00,,,-99.99,wx200d/1.3,2013-02-21 10:00:00,
2013-02-21 02:15:00,46.0,32.0,29.94,West,274,2.2,2.7,40,0.00,,,-99.99,wx200d/1.3,2013-02-21 10:15:00,
2013-02-21 02:30:00,45.7,32.0,29.94,West,275,0.0,0.0,41,0.00,,,-99.99,wx200d/1.3,2013-02-21 10:30:00,
2013-02-21 02:45:00,45.1,32.0,29.91,West,261,0.0,0.0,42,0.00,,,-99.99,wx200d/1.3,2013-02-21 10:45:00,
2013-02-21 03:00:00,44.8,32.0,29.91,West,266,0.0,0.0,42,0.00,,,-99.99,wx200d/1.3,2013-02-21 11:00:00,
2013-02-21 03:15:00,45.1,32.0,29.91,West,266,0.0,0.0,43,0.00,,,-99.99,wx200d/1.3,2013-02-21 11:15:00,
2013-02-21 03:30:00,44.8,32.0,29.91,West,271,0.0,0.0,43,0.00,,,-99.99,wx200d/1.3,2013-02-21 11:30:00,
2013-02-21 03:45:00,43.9,32.0,29.91,West,268,0.0,0.0,44,0.00,,,-99.99,wx200d/1.3,2013-02-21 11:45:00,
2013-02-21 04:00:00,44.1,32.0,29.91,West,271,0.0,0.0,48,0.00,,,-99.99,wx200d/1.3,2013-02-21 12:00:00,
2013-02-21 04:15:00,44.4,32.0,29.91,NNW,335,0.0,2.7,46,0.00,,,-99.99,wx200d/1.3,2013-02-21 12:15:00,
2013-02-21 04:30:00,45.0,32.0,29.94,West,280,0.0,2.2,44,0.00,,,-99.99,wx200d/1.3,2013-02-21 12:30:00,
2013-02-21 04:45:00,45.3,32.0,29.91,NW,308,0.0,0.0,43,0.00,,,-99.99,wx200d/1.3,2013-02-21 12:45:00,
2013-02-21 05:00:00,45.7,32.0,29.94,WNW,286,2.2,2.2,42,0.00,,,-99.99,wx200d/1.3,2013-02-21 13:00:00,
2013-02-21 05:15:00,46.2,32.0,29.94,West,273,0.0,0.0,39,0.00,,,-99.99,wx200d/1.3,2013-02-21 13:15:00,
2013-02-21 05:30:00,46.4,32.0,29.94,WNW,288,2.7,0.0,39,0.00,,,-99.99,wx200d/1.3,2013-02-21 13:30:00,
2013-02-21 05:45:00,45.3,32.0,29.94,WSW,253,0.0,0.0,41,0.00,,,-99.99,wx200d/1.3,2013-02-21 13:45:00,
2013-02-21 06:00:00,45.0,32.0,29.94,West,273,0.0,0.0,42,0.00,,,-99.99,wx200d/1.3,2013-02-21 14:00:00,
2013-02-21 06:15:00,44.1,32.0,29.94,West,271,0.0,0.0,43,0.00,,,-99.99,wx200d/1.3,2013-02-21 14:15:00,
2013-02-21 06:30:00,43.3,32.0,29.94,West,271,0.0,0.0,43,0.00,,,-99.99,wx200d/1.3,2013-02-21 14:30:00,
2013-02-21 06:45:00,42.3,32.0,29.97,West,271,0.0,0.0,44,0.00,,,-99.99,wx200d/1.3,2013-02-21 14:45:00,
2013-02-21 07:00:00,42.3,32.0,29.97,West,271,0.0,0.0,46,0.00,,,-99.99,wx200d/1.3,2013-02-21 15:00:00,
2013-02-21 07:15:00,43.0,32.0,29.97,West,271,0.0,0.0,47,0.00,,,-99.99,wx200d/1.3,2013-02-21 15:15:00,
2013-02-21 07:30:00,43.5,32.0,29.97,West,267,0.0,0.0,48,0.00,,,-99.99,wx200d/1.3,2013-02-21 15:30:00,
2013-02-21 07:45:00,44.2,32.0,29.97,West,267,0.0,0.0,47,0.00,,,-99.99,wx200d/1.3,2013-02-21 15:45:00,
2013-02-21 08:00:00,45.1,32.0,29.97,West,262,0.0,2.7,45,0.00,,,-99.99,wx200d/1.3,2013-02-21 16:00:00,
2013-02-21 08:15:00,46.8,32.0,29.97,West,268,0.0,2.2,37,0.00,,,-99.99,wx200d/1.3,2013-02-21 16:15:00,
2013-02-21 08:30:00,47.5,32.0,30.00,West,275,3.6,3.6,33,0.00,,,-99.99,wx200d/1.3,2013-02-21 16:30:00,
2013-02-21 08:45:00,48.0,32.0,30.00,South,191,2.7,0.0,31,0.00,,,-99.99,wx200d/1.3,2013-02-21 16:45:00,
2013-02-21 09:00:00,48.6,32.0,30.00,West,268,0.0,0.0,30,0.00,,,-99.99,wx200d/1.3,2013-02-21 17:00:00,
2013-02-21 09:15:00,49.3,32.0,30.00,NW,309,2.2,0.0,29,0.00,,,-99.99,wx200d/1.3,2013-02-21 17:15:00,
2013-02-21 09:30:00,50.0,32.0,30.00,West,267,2.7,2.7,28,0.00,,,-99.99,wx200d/1.3,2013-02-21 17:30:00,
2013-02-21 09:45:00,50.5,32.0,30.00,East,91,2.7,2.7,27,0.00,,,-99.99,wx200d/1.3,2013-02-21 17:45:00,
2013-02-21 10:00:00,50.9,32.0,30.00,SW,225,3.6,4.0,26,0.00,,,-99.99,wx200d/1.3,2013-02-21 18:00:00,
2013-02-21 10:15:00,51.6,32.0,30.00,West,272,3.6,8.3,24,0.00,,,-99.99,wx200d/1.3,2013-02-21 18:15:00,
2013-02-21 10:30:00,52.0,32.0,30.03,WNW,285,3.1,4.0,23,0.00,,,-99.99,wx200d/1.3,2013-02-21 18:30:00,
2013-02-21 10:45:00,52.3,32.0,30.03,West,272,5.4,6.3,23,0.00,,,-99.99,wx200d/1.3,2013-02-21 18:45:00,
2013-02-21 11:00:00,52.7,32.0,30.03,ESE,104,3.6,3.6,23,0.00,,,-99.99,wx200d/1.3,2013-02-21 19:00:00,
2013-02-21 11:15:00,52.9,32.0,30.03,West,278,2.2,3.6,21,0.00,,,-99.99,wx200d/1.3,2013-02-21 19:15:00,
2013-02-21 11:30:00,53.2,32.0,30.03,West,264,0.0,5.4,21,0.00,,,-99.99,wx200d/1.3,2013-02-21 19:30:00,
2013-02-21 11:45:00,53.6,32.0,30.03,SW,229,2.7,4.0,20,0.00,,,-99.99,wx200d/1.3,2013-02-21 19:45:00,
2013-02-21 12:00:00,54.3,32.0,30.00,NNE,24,4.0,4.0,20,0.00,,,-99.99,wx200d/1.3,2013-02-21 20:00:00,
2013-02-21 12:15:00,54.9,32.0,30.00,ENE,74,2.2,2.2,20,0.00,,,-99.99,wx200d/1.3,2013-02-21 20:15:00,
2013-02-21 12:30:00,55.4,32.0,30.00,WSW,253,0.0,0.0,17,0.00,,,-99.99,wx200d/1.3,2013-02-21 20:30:00,
2013-02-21 12:45:00,56.1,32.0,30.00,West,260,0.0,2.7,22,0.00,,,-99.99,wx200d/1.3,2013-02-21 20:45:00,
2013-02-21 13:00:00,55.6,32.0,30.00,West,269,0.0,3.1,22,0.00,,,-99.99,wx200d/1.3,2013-02-21 21:00:00,
2013-02-21 13:15:00,55.2,32.0,30.00,West,280,2.7,3.1,23,0.00,,,-99.99,wx200d/1.3,2013-02-21 21:15:00,
2013-02-21 13:30:00,55.4,32.0,30.00,East,83,2.7,2.7,22,0.00,,,-99.99,wx200d/1.3,2013-02-21 21:30:00,
2013-02-21 13:45:00,55.4,32.0,30.00,WNW,286,2.2,0.0,22,0.00,,,-99.99,wx200d/1.3,2013-02-21 21:45:00,
2013-02-21 14:00:00,55.9,32.0,29.97,West,266,0.0,2.7,22,0.00,,,-99.99,wx200d/1.3,2013-02-21 22:00:00,
2013-02-21 14:15:00,55.9,32.0,29.97,WNW,291,0.0,2.7,22,0.00,,,-99.99,wx200d/1.3,2013-02-21 22:15:00,
2013-02-21 14:30:00,56.5,32.0,29.97,West,263,3.1,4.0,20,0.00,,,-99.99,wx200d/1.3,2013-02-21 22:30:00,
2013-02-21 14:45:00,56.7,32.0,29.97,WNW,285,2.2,0.0,20,0.00,,,-99.99,wx200d/1.3,2013-02-21 22:45:00,
2013-02-21 15:00:00,56.7,32.0,29.97,WSW,256,4.0,0.0,22,0.00,,,-99.99,wx200d/1.3,2013-02-21 23:00:00,
2013-02-21 15:15:00,56.7,32.0,29.97,West,268,2.7,3.1,22,0.00,,,-99.99,wx200d/1.3,2013-02-21 23:15:00,
2013-02-21 15:30:00,56.3,32.0,29.97,West,281,0.0,2.7,22,0.00,,,-99.99,wx200d/1.3,2013-02-21 23:30:00,
2013-02-21 15:45:00,56.1,32.0,29.97,WNW,285,3.1,4.9,25,0.00,,,-99.99,wx200d/1.3,2013-02-21 23:45:00,
2013-02-21 16:00:00,55.4,32.0,29.94,WNW,288,3.6,3.6,25,0.00,,,-99.99,wx200d/1.3,2013-02-22 00:00:00,
2013-02-21 16:15:00,54.5,32.0,29.97,West,271,4.0,6.3,26,0.00,,,-99.99,wx200d/1.3,2013-02-22 00:15:00,
2013-02-21 16:30:00,54.1,32.0,29.97,West,281,2.2,3.1,27,0.00,,,-99.99,wx200d/1.3,2013-02-22 00:30:00,
2013-02-21 16:45:00,54.1,32.0,29.97,West,280,0.0,2.7,26,0.00,,,-99.99,wx200d/1.3,2013-02-22 00:45:00,
2013-02-21 17:00:00,53.6,32.0,29.97,West,268,4.0,4.0,26,0.00,,,-99.99,wx200d/1.3,2013-02-22 01:00:00,
2013-02-21 17:15:00,52.5,32.0,29.97,West,267,3.1,0.0,28,0.00,,,-99.99,wx200d/1.3,2013-02-22 01:15:00,
2013-02-21 17:30:00,51.4,32.0,29.97,West,275,3.1,3.1,32,0.00,,,-99.99,wx200d/1.3,2013-02-22 01:30:00,
2013-02-21 17:45:00,50.9,32.0,29.97,West,270,3.1,4.9,36,0.00,,,-99.99,wx200d/1.3,2013-02-22 01:45:00,
2013-02-21 18:00:00,50.2,32.0,29.97,West,271,2.7,3.6,33,0.00,,,-99.99,wx200d/1.3,2013-02-22 02:00:00,
2013-02-21 18:15:00,50.2,32.0,29.97,West,270,3.1,3.6,36,0.00,,,-99.99,wx200d/1.3,2013-02-22 02:15:00,
2013-02-21 18:30:00,49.8,32.0,29.97,West,267,3.1,4.5,36,0.00,,,-99.99,wx200d/1.3,2013-02-22 02:30:00,
2013-02-21 18:45:00,49.6,32.0,29.97,West,276,3.6,3.6,34,0.00,,,-99.99,wx200d/1.3,2013-02-22 02:45:00,
2013-02-21 19:00:00,49.5,32.0,29.97,West,267,2.2,2.7,31,0.00,,,-99.99,wx200d/1.3,2013-02-22 03:00:00,
2013-02-21 19:15:00,49.3,32.0,29.97,West,278,2.2,2.2,31,0.00,,,-99.99,wx200d/1.3,2013-02-22 03:15:00,
2013-02-21 19:30:00,48.6,32.0,29.97,West,273,0.0,0.0,29,0.00,,,-99.99,wx200d/1.3,2013-02-22 03:30:00,
2013-02-21 19:45:00,47.8,32.0,29.97,West,273,0.0,0.0,29,0.00,,,-99.99,wx200d/1.3,2013-02-22 03:45:00,
2013-02-21 20:00:00,47.7,32.0,29.97,West,273,0.0,0.0,29,0.00,,,-99.99,wx200d/1.3,2013-02-22 04:00:00,
2013-02-21 20:15:00,47.3,32.0,29.97,West,273,0.0,0.0,30,0.00,,,-99.99,wx200d/1.3,2013-02-22 04:15:00,
2013-02-21 20:30:00,46.9,32.0,30.00,West,273,0.0,0.0,30,0.00,,,-99.99,wx200d/1.3,2013-02-22 04:30:00,
2013-02-21 20:45:00,46.6,32.0,30.00,West,273,0.0,0.0,31,0.00,,,-99.99,wx200d/1.3,2013-02-22 04:45:00,
2013-02-21 21:15:00,46.2,32.0,30.00,West,273,0.0,0.0,34,0.00,,,-99.99,wx200d/1.3,2013-02-22 05:15:00,
2013-02-21 21:30:00,46.2,32.0,30.00,West,273,0.0,0.0,36,0.00,,,-99.99,wx200d/1.3,2013-02-22 05:30:00,
2013-02-21 21:45:00,46.4,32.0,30.00,West,273,0.0,0.0,36,0.00,,,-99.99,wx200d/1.3,2013-02-22 05:45:00,
2013-02-21 22:00:00,46.2,32.0,30.00,West,273,0.0,0.0,37,0.00,,,-99.99,wx200d/1.3,2013-02-22 06:00:00,
2013-02-21 22:15:00,46.0,32.0,30.00,West,273,0.0,0.0,37,0.00,,,-99.99,wx200d/1.3,2013-02-22 06:15:00,
2013-02-21 22:30:00,46.0,32.0,30.00,West,273,0.0,0.0,38,0.00,,,-99.99,wx200d/1.3,2013-02-22 06:30:00,
2013-02-21 22:45:00,46.2,32.0,30.00,West,273,0.0,0.0,38,0.00,,,-99.99,wx200d/1.3,2013-02-22 06:45:00,
2013-02-21 23:00:00,46.6,32.0,30.00,West,273,0.0,0.0,38,0.00,,,-99.99,wx200d/1.3,2013-02-22 07:00:00,
2013-02-21 23:15:00,46.8,32.0,30.00,West,273,0.0,0.0,38,0.00,,,-99.99,wx200d/1.3,2013-02-22 07:15:00,
2013-02-21 23:30:00,46.4,32.0,30.00,West,273,0.0,0.0,38,0.00,,,-99.99,wx200d/1.3,2013-02-22 07:30:00,
2013-02-21 23:45:00,46.2,32.0,30.00,West,273,0.0,0.0,38,0.00,,,-99.99,wx200d/1.3,2013-02-22 07:45:00,